Terug naar catalogus

STARLINK-5261

ActiefCommunicatieVLEO
NORAD 55276·PAYLOAD·🇺🇸 United States

Gelanceerd Jan 19, 2023 vanaf Vandenberg Space Force Base

Loading…

Volgende Passages (komende 24 uur)

TLE

VersSource: CelesTrak SupGP

Epoch: Sep 15, 2026, 03:11 UTC

1 55276C 23010H   26258.13312500 -.00039406  00000+0 -33020-2 0  2580
2 55276  70.0000 266.9114 0003737 267.6787  76.9282 14.98353527    18

Volg STARLINK-5261 in realtime met AllMySat

Download on the App Store